Flag for U.S.A. Weather past 2 weeks in Columbia, South Carolina, U.S.A.

Now
75 °F

Fog.


Feels Like: 74 °F
Forecast: 70 / 87 °F
Wind: No wind

Location: Columbia Owens Downtown Airport

Current Time: Jul 22, 2014 at 9:59:55 AM

Latest Report: Jul 22, 2014 at 8:53 AM


Visibility: 4 mi

Pressure: 30.14 "Hg

Humidity: 90%

Dew point: 72 °F

Location of ColumbiaLocation

Historic Weather in Columbia — Graph

°F

Columbia temperature yesterday

Maximum temperature yesterday: 84 °F (at 2:53 PM)
Minimum temperature yesterday: 73 °F (at 9:53 AM)
Average temperature yesterday: 76 °F

Past Weeks' High & Low Weather Summary

 TemperatureHumidityPressure
High97 °F (Jul 9, 2:53 PM)94% (Jul 8, 3:53 AM)30.21 "Hg (Jul 8, 3:53 AM)
Low68 °F (Jul 17, 3:53 AM)29% (Jul 9, 2:53 PM)29.81 "Hg (Jul 15, 4:53 PM)
Average80 °F70%30.04 "Hg
* Reported Jul 7 8:53 AM — Jul 22 8:53 AM, Columbia, Weather by CustomWeather, © 2014

Note: Actual official high and low records may vary slightly from our data, if they occured in-between our weather recording intervals... More about our weather records

Advertising

Columbia weather history for previous 24 hours

 ConditionsComfort  
Time TempWeatherWind HumidityBarometerVisibility
8:53 AM
Jul 22
75 °FFog.No wind90%30.14 "Hg4 mi
7:53 AM75 °FLow clouds.No wind90%30.13 "Hg7 mi
6:53 AM74 °FLow clouds.No wind94%30.11 "Hg8 mi
5:53 AM74 °FLow clouds.3 mph91%30.09 "Hg10 mi
4:53 AM73 °FMostly cloudy.No wind94%30.08 "Hg7 mi
4:04 AM73 °FOvercast.No wind94%30.09 "Hg10 mi
2:53 AM73 °FMostly cloudy.No wind94%30.09 "Hg10 mi
1:53 AM73 °FOvercast.No wind94%30.10 "Hg10 mi
12:53 AM73 °FLight rain. Overcast.No wind94%30.11 "Hg7 mi
11:53 PM
Jul 21
73 °FLight rain. Overcast.3 mph90%30.11 "Hg10 mi
10:53 PM73 °FMostly cloudy.No wind90%30.11 "Hg10 mi
9:53 PM73 °FLight rain. Passing clouds.No wind90%30.11 "Hg10 mi
8:53 PM73 °FLight rain. Sunny.No wind90%30.11 "Hg10 mi
7:53 PM73 °FRain. Fog.3 mph90%30.09 "Hg6 mi
6:56 PM74 °FThunderstorms. Scattered clouds.5 mph88%30.08 "Hg10 mi
6:00 PM75 °FLight rain. Overcast.No wind90%30.08 "Hg10 mi
4:53 PM76 °FRain. Fog.6 mph88%30.07 "Hg4 mi
3:53 PM83 °FThundershowers. More clouds than sun.No wind79%30.05 "Hg10 mi
2:53 PM84 °FScattered clouds.No wind67%30.07 "Hg10 mi
1:53 PM82 °FBroken clouds.3 mph77%30.09 "Hg10 mi
12:53 PM79 °FMostly cloudy.No wind82%30.09 "Hg10 mi
11:53 AM77 °FPartly sunny.3 mph90%30.10 "Hg10 mi
10:53 AM74 °FRain. Fog.No wind91%30.11 "Hg3 mi
9:53 AM73 °FThundershowers. Fog.3 mph94%30.10 "Hg2 mi
Weather by CustomWeather, © 2014

See weather overviewHow to use our weather pages